Regional Weather Roundup
Issued by NWS

Home | Current Version | Previous Version | Text Only | Print | Product List | Glossary Off
Versions: 1 2 3 4 5 6 7 8 9 10 11 12 13 14 15 16 17 18 19 20 21 22 23 24 25 26 27 28 29 30 31 32 33 34 35 36 37 38 39 40 41 42 43 44 45 46 47 48 49 50

000
ASUS43 KIND 241659
RWRIN

WEATHER ROUNDUP FOR INDIANA
NATIONAL WEATHER SERVICE INDIANAPOLIS IN
100 PM EDT FRI MAR 24 2017

NOTE: "FAIR" INDICATES FEW OR NO CLOUDS BELOW 12,000 FEET WITH NO
SIGNIFICANT WEATHER AND/OR OBSTRUCTIONS TO VISIBILITY.

* - STATION DOES NOT REPORT WEATHER SUCH AS PRECIPITATION OR FOG.

+ - STATION NOT QUALITY CONTROLLED BY THE NATIONAL WEATHER SERVICE.
    USE DATA WITH CAUTION...ESPECIALLY DEWPOINT AND RELATIVE
    HUMIDITY OBSERVATIONS.

INZ001>003-010>013-019-020-241800-
NORTHWEST INDIANA

CITY           SKY/WX    TMP DP  RH WIND       PRES   REMARKS
GARY /AIRPORT/ MOSUNNY   73  46  38 S16G32    29.95F
MONTICELLO +   SUNNY     71  53  53 SW21G28   30.02F
RENSSELAER +   SUNNY     72  52  49 S22G32    30.01F

$$

LMZ046-743>745-241800-
SOUTHERN LAKE MICHIGAN

STATION/POSITION TIME  TEMP    WIND        PRES    WAVE
                       AIR SEA DIR/SP/G            HT
                 (UTC) (F)     (DEG/KT/KT) (MB)    (FT)
BURNS HARBOR     1640   68     220/ 21/ 29 1014.6S
MICHIGAN CITY    1630   68     190/ 23/ 26   N/A

$$

INZ004-005-014>016-021>024-241800-
NORTH CENTRAL INDIANA

CITY           SKY/WX    TMP DP  RH WIND       PRES   REMARKS
ELKHART        CLOUDY    72  50  46 SW23G29   29.98S
GOSHEN         CLOUDY    70  51  51 SW22G32   29.99F
SOUTH BEND     CLOUDY    71  52  50 SW21G31   29.97F

$$

INZ006>009-017-018-025>027-241800-
NORTHEAST INDIANA

CITY           SKY/WX    TMP DP  RH WIND       PRES   REMARKS
ANGOLA *+      SUNNY     68  61  77 SW20      29.99F
FORT WAYNE     PTSUNNY   68  53  58 SW30G36   30.04F
KENDALLVILLE + MOSUNNY   68  53  58 SW22G29   30.01S

$$

INZ028-029-035-036-043>045-051>053-241800-
WEST CENTRAL INDIANA

CITY           SKY/WX    TMP DP  RH WIND       PRES   REMARKS
CRAWFORDSVL +  SUNNY     69  56  62 SW21G28   30.08F
GREENCASTLE +  MOSUNNY   70  54  56 S15G25    30.11F
LAFAYETTE      SUNNY     71  56  58 S16G28    30.04F
TERRE HAUTE    PTSUNNY   70  55  59 SW16G38   30.11S

$$

INZ030>032-037>040-046>048-054>057-064-065-241800-
CENTRAL INDIANA

CITY           SKY/WX    TMP DP  RH WIND       PRES   REMARKS
ANDERSON       SUNNY     66  54  63 SW17G29   30.12F
CP ATTERBURY + MOSUNNY   72  54  53 SW15G25   30.14F
COLUMBUS       MOSUNNY   72  55  56 SW23G29   30.15F
INDIANAPOLIS   MOSUNNY   72  55  55 SW21G28   30.11F
-EAGLE CREEK   SUNNY     71  54  54 SW20G31   30.10F
KOKOMO +       SUNNY     70  56  61 SW24G38   30.07F
SHELBYVILLE    MOSUNNY   71  53  52 S17       30.13F

$$

INZ033-034-041-042-049-050-058-059-241800-
EAST CENTRAL INDIANA

CITY           SKY/WX    TMP DP  RH WIND       PRES   REMARKS
MUNCIE         SUNNY     69  53  56 SW21G29   30.09F
RICHMOND +     CLOUDY    64  52  63 SW24G30   30.16F

$$

INZ060-061-067>069-081>083-085>088-241800-
SOUTHWEST INDIANA

CITY           SKY/WX    TMP DP  RH WIND       PRES   REMARKS
EVANSVILLE     CLOUDY    72  55  55 SW22G32   30.17S
HUNTINGBURG *+ PTSUNNY   72  56  57 S17G31    30.17F

$$

INZ062-063-066-070>080-084-089>092-241800-
SOUTH CENTRAL AND SOUTHEAST INDIANA

CITY           SKY/WX    TMP DP  RH WIND       PRES   REMARKS
BLOOMINGTON    PTSUNNY   72  54  53 SW17G25   30.15F
MADISON *+     SUNNY     70  50  49 S14G24    30.21F
SEYMOUR +      MOSUNNY   73  54  49 S18G24    30.17F

$$





USA.gov is the U.S. government's official web portal to all federal, state and local government web resources and services.